Simultaneous Nadir Overpasses (SNOs) Predictions

Prediction of SNOs between METOP-A and NOAA-19 Satellite Orbit:

Table of predicted SNOs for the next 14.0 days since TLE Epoch: 3/22/2019
Index Date (METOP-A) Time (METOP-A) Lat,Lon (METOP-A) SZA (METOP-A ) Date (NOAA-19) Time (NOAA-19) Lat,Lon (NOAA-19) SZA (NOAA-19 ) Distance(km) Time Diff (sec)
1 03/31/2019 15:29:52 79.50, -41.06 75.40 03/31/2019 15:28:45 79.49, -41.09 75.39 0.69 67
2 03/31/2019 16:20:34 -79.47, 126.09 104.64 03/31/2019 16:19:43 -79.50, 126.16 104.62 3.12 51
3 03/31/2019 17:11:14 79.47, -66.57 75.35 03/31/2019 17:10:46 79.50, -66.62 75.37 2.83 28
4 03/31/2019 18:01:55 -79.48, 100.84 104.66 03/31/2019 18:01:43 -79.47, 100.92 104.67 2.18 12
5 03/31/2019 18:52:35 79.49, -91.81 75.34 03/31/2019 18:52:46 79.47, -91.86 75.32 1.99 11
6 03/31/2019 19:43:17 -79.46, 75.34 104.71 03/31/2019 19:43:44 -79.47, 75.39 104.69 1.51 27
7 03/31/2019 20:33:57 79.46,-117.32 75.28 03/31/2019 20:34:47 79.47,-117.38 75.30 1.65 50
8 03/31/2019 21:24:38 -79.47, 50.10 104.72 03/31/2019 21:25:44 -79.45, 50.14 104.74 3.36 66




NCC Satellite Simultaneous Nadir Overpasses (SNOs) Prediction Service
